GW5041 Weather Reports


time (UTC)temp
F
wind
direction
speed
knots
gust
knots
rain 1hr
in
rain 24hr
in
rain mn
in
humidity
%
barometer
mb
20260906181329 100 318 0.0 0.9 0.00 0.00 0.00 47 1016.7
20260906180829 100 321 0.9 0.9 0.00 0.00 0.00 46 1016.8
20260906180324 99 21 0.0 0.9 0.00 0.00 0.00 47 1017.0
20260906175821 98 310 1.7 1.7 0.00 0.00 0.00 49 1017.1
20260906175317 98 349 0.0 0.9 0.00 0.00 0.00 52 1017.2
20260906174816 98 343 0.0 0.9 0.00 0.00 0.00 51 1017.0
20260906174309 97 345 0.0 0.9 0.00 0.00 0.00 52 1017.1
20260906173804 97 343 0.9 0.9 0.00 0.00 0.00 51 1017.3
20260906173300 98 354 0.9 1.7 0.00 0.00 0.00 50 1017.4
20260906172759 98 265 1.7 2.6 0.00 0.00 0.00 49 1017.5
20260906172256 98 342 0.9 2.6 0.00 0.00 0.00 51 1017.4
20260906171755 99 341 0.0 1.7 0.00 0.00 0.00 48 1017.6
20260906171251 98 336 0.0 0.9 0.00 0.00 0.00 51 1017.7
20260906170746 98 326 0.0 1.7 0.00 0.00 0.00 49 1017.9
20260906170236 98 274 0.9 0.9 0.00 0.00 0.00 49 1017.8
20260906165732 99 15 0.0 1.7 0.00 0.00 0.00 53 1018.1
20260906165227 100 350 0.0 0.9 0.00 0.00 0.00 47 1017.9
20260906164726 100 332 0.0 0.9 0.00 0.00 0.00 49 1017.9
20260906164227 99 312 0.0 0.9 0.00 0.00 0.00 49 1018.2
20260906163723 99 1 1.7 2.6 0.00 0.00 0.00 50 1018.2
20260906163219 97 351 0.0 1.7 0.00 0.00 0.00 52 1017.9
20260906162715 98 350 0.9 2.6 0.00 0.00 0.00 52 1017.9
20260906162210 98 342 0.0 0.9 0.00 0.00 0.00 52 1018.2
20260906161704 99 328 0.0 1.7 0.00 0.00 0.00 52 1017.9
20260906161204 99 355 0.9 1.7 0.00 0.00 0.00 51 1017.9
20260906160703 99 308 0.0 0.9 0.00 0.00 0.00 50 1017.9
20260906160202 98 342 0.0 0.9 0.00 0.00 0.00 54 1017.8
20260906155659 97 326 0.9 0.9 0.00 0.00 0.00 55 1017.7
20260906155155 95 348 0.0 1.7 0.00 0.00 0.00 56 1017.8
20260906154650 95 359 0.0 0.9 0.00 0.00 0.00 55 1017.8
20260906154150 96 6 0.9 0.9 0.00 0.00 0.00 54 1017.7
20260906153649 97 348 0.9 1.7 0.00 0.00 0.00 55 1017.8
20260906153145 96 359 0.0 0.9 0.00 0.00 0.00 56 1017.7
20260906152644 95 350 0.0 2.6 0.00 0.00 0.00 56 1017.7
20260906152138 95 304 0.0 0.9 0.00 0.00 0.00 56 1017.6
20260906151633 95 326 0.9 1.7 0.00 0.00 0.00 55 1017.7
20260906151129 94 14 0.9 0.9 0.00 0.00 0.00 57 1017.8
20260906150624 94 5 0.0 0.9 0.00 0.00 0.00 59 1017.9
20260906150120 94 350 0.9 1.7 0.00 0.00 0.00 58 1017.7
20260906145619 93 319 0.0 0.9 0.00 0.00 0.00 60 1017.7
20260906145114 92 354 0.9 1.7 0.00 0.00 0.00 61 1017.7
20260906144608 92 0 0.0 1.7 0.00 0.00 0.00 61 1017.8
20260906144104 92 346 0.9 1.7 0.00 0.00 0.00 59 1017.9
20260906143604 91 357 0.0 1.7 0.00 0.00 0.00 62 1017.8
20260906143100 91 356 0.0 0.9 0.00 0.00 0.00 62 1017.8
20260906142559 90 359 0.0 0.9 0.00 0.00 0.00 63 1017.8
20260906142055 89 338 0.0 0.9 0.00 0.00 0.00 66 1017.8
20260906141554 87 355 0.9 0.9 0.00 0.00 0.00 67 1017.5
20260906141049 86 337 0.0 0.9 0.00 0.00 0.00 69 1017.5
20260906140548 84 359 0.0 0.9 0.00 0.00 0.00 72 1017.6
20260906140043 83 355 0.0 0.9 0.00 0.00 0.00 74 1017.6
20260906135540 83 346 0.0 0.9 0.00 0.00 0.00 73 1017.5
20260906135036 82 343 0.0 1.7 0.00 0.00 0.00 74 1017.6
20260906134531 82 346 0.0 0.9 0.00 0.00 0.00 76 1017.6
20260906134025 81 341 0.0 0.0 0.00 0.00 0.00 77 1017.4
20260906133522 81 351 0.0 1.7 0.00 0.00 0.00 77 1017.4
20260906133017 80 353 0.0 0.0 0.00 0.00 0.00 79 1017.5
20260906132512 79 346 0.0 0.0 0.00 0.00 0.00 79 1017.3
20260906132007 79 348 0.0 0.0 0.00 0.00 0.00 81 1017.3
20260906131502 78 329 0.9 1.7 0.00 0.00 0.00 81 1017.3
20260906130958 78 348 0.0 0.0 0.00 0.00 0.00 82 1017.0
20260906130457 77 349 0.0 0.0 0.00 0.00 0.00 83 1017.0
20260906125951 76 346 0.0 0.0 0.00 0.00 0.00 84 1017.1
20260906125449 76 350 0.0 0.0 0.00 0.00 0.00 86 1016.9
20260906124948 75 354 0.0 0.0 0.00 0.00 0.00 87 1016.9
20260906124445 74 349 0.0 0.0 0.00 0.00 0.00 89 1016.8
20260906123939 73 350 0.0 0.0 0.00 0.00 0.00 91 1016.7
20260906123438 73 351 0.0 0.0 0.00 0.00 0.00 91 1016.6
20260906122933 73 351 0.0 0.0 0.00 0.00 0.00 91 1016.7
20260906122427 73 349 0.0 0.0 0.00 0.00 0.00 92 1016.8
20260906121924 73 350 0.0 0.0 0.00 0.00 0.00 91 1016.5
20260906121420 73 349 0.0 0.0 0.00 0.00 0.00 91 1016.5
20260906120916 73 349 0.0 0.0 0.00 0.00 0.00 91 1016.6
20260906120412 73 348 0.0 0.0 0.00 0.00 0.00 91 1016.5
20260906115908 73 349 0.0 0.0 0.00 0.00 0.00 91 1016.4
20260906115403 73 348 0.0 0.0 0.00 0.00 0.00 91 1016.5
20260906114902 73 349 0.0 0.0 0.00 0.00 0.00 91 1016.5
20260906114357 73 350 0.0 0.0 0.00 0.00 0.00 91 1016.6
20260906113853 73 350 0.0 0.0 0.00 0.00 0.00 91 1016.6
20260906113352 73 348 0.0 0.0 0.00 0.00 0.00 91 1016.5
20260906112847 73 350 0.0 0.0 0.00 0.00 0.00 91 1016.4
20260906112343 73 349 0.0 0.0 0.00 0.00 0.00 91 1016.5
20260906111837 73 355 0.0 0.0 0.00 0.00 0.00 91 1016.5
20260906111331 73 347 0.0 0.0 0.00 0.00 0.00 91 1016.4
20260906110826 73 347 0.0 0.0 0.00 0.00 0.00 91 1016.5
20260906110322 73 350 0.0 0.0 0.00 0.00 0.00 91 1016.2
20260906105821 73 349 0.0 0.0 0.00 0.00 0.00 91 1016.3
20260906105317 73 348 0.0 0.0 0.00 0.00 0.00 91 1016.3
20260906104813 73 348 0.0 0.0 0.00 0.00 0.00 90 1016.5
20260906104311 73 348 0.0 0.0 0.00 0.00 0.00 90 1016.4
20260906103810 73 348 0.0 0.0 0.00 0.00 0.00 90 1016.3
20260906103309 73 348 0.0 0.0 0.00 0.00 0.00 90 1016.3
20260906102805 73 348 0.0 0.0 0.00 0.00 0.00 90 1016.1
20260906102306 73 348 0.0 0.0 0.00 0.00 0.00 90 1016.4
20260906101759 73 348 0.0 0.0 0.00 0.00 0.00 89 1016.1
20260906101254 73 348 0.0 0.0 0.00 0.00 0.00 89 1016.2
20260906100749 74 348 0.0 0.0 0.00 0.00 0.00 89 1016.1
20260906100248 74 348 0.0 0.0 0.00 0.00 0.00 89 1016.0
20260906095744 74 348 0.0 0.0 0.00 0.00 0.00 89 1016.1
20260906095239 74 349 0.0 0.0 0.00 0.00 0.00 89 1016.0
20260906094738 74 350 0.0 0.0 0.00 0.00 0.00 88 1016.1
20260906094233 74 348 0.0 0.0 0.00 0.00 0.00 88 1016.0
20260906093730 74 349 0.0 0.0 0.00 0.00 0.00 88 1016.0
20260906093225 74 349 0.0 0.0 0.00 0.00 0.00 88 1016.0
20260906092721 74 346 0.0 0.0 0.00 0.00 0.00 88 1016.1
20260906092220 74 349 0.0 0.0 0.00 0.00 0.00 88 1016.0
20260906091716 74 349 0.0 0.0 0.00 0.00 0.00 87 1015.9
20260906091212 74 349 0.0 0.0 0.00 0.00 0.00 87 1015.9
20260906090708 75 352 0.0 0.0 0.00 0.00 0.00 87 1015.9
20260906090208 75 349 0.0 0.0 0.00 0.00 0.00 87 1015.9
20260906085707 74 349 0.0 0.0 0.00 0.00 0.00 87 1015.8
20260906085206 74 349 0.0 0.0 0.00 0.00 0.00 87 1015.8
20260906084701 75 348 0.0 0.0 0.00 0.00 0.00 87 1015.8
20260906084201 75 350 0.0 0.0 0.00 0.00 0.00 87 1015.6
20260906083655 75 350 0.0 0.0 0.00 0.00 0.00 87 1015.7
20260906083151 75 347 0.0 0.0 0.00 0.00 0.00 87 1015.5
20260906082646 74 349 0.0 0.0 0.00 0.00 0.00 87 1015.7
20260906082141 75 349 0.0 0.0 0.00 0.00 0.00 86 1015.7
20260906081637 75 349 0.0 0.0 0.00 0.00 0.00 86 1015.7
20260906081132 75 349 0.0 0.0 0.00 0.00 0.00 86 1015.8
20260906080629 75 349 0.0 0.0 0.00 0.00 0.00 87 1015.8
20260906080125 75 349 0.0 0.0 0.00 0.00 0.00 86 1015.6
20260906075624 75 349 0.0 0.0 0.00 0.00 0.00 86 1015.6
20260906075119 75 349 0.0 0.0 0.00 0.00 0.00 86 1015.7
20260906074614 75 348 0.0 0.0 0.00 0.00 0.00 85 1015.7
20260906074113 75 348 0.0 0.0 0.00 0.00 0.00 85 1015.7
20260906073608 75 348 0.0 0.0 0.00 0.00 0.00 85 1015.7
20260906073104 76 348 0.0 0.0 0.00 0.00 0.00 84 1015.7
20260906072558 76 348 0.0 0.0 0.00 0.00 0.00 84 1015.6
20260906072055 76 348 0.0 0.0 0.00 0.00 0.00 83 1015.8
20260906071551 76 348 0.0 0.0 0.00 0.00 0.00 83 1015.6
20260906071050 76 348 0.0 0.0 0.00 0.00 0.00 83 1015.6
20260906070548 77 348 0.0 0.0 0.00 0.00 0.00 83 1015.7
20260906070043 77 348 0.0 0.0 0.00 0.00 0.00 83 1015.7
20260906065542 77 348 0.0 0.0 0.00 0.00 0.00 83 1015.8
20260906065038 77 348 0.0 0.0 0.00 0.00 0.00 83 1015.7
20260906064534 77 349 0.0 0.0 0.00 0.00 0.00 83 1015.8
20260906064028 77 349 0.0 0.0 0.00 0.00 0.00 82 1015.9
20260906063524 77 349 0.0 0.0 0.00 0.00 0.00 83 1015.9
20260906063020 77 349 0.0 0.0 0.00 0.00 0.00 83 1015.8
20260906062514 77 349 0.0 0.0 0.00 0.00 0.00 82 1015.9
20260906062009 77 349 0.0 0.0 0.00 0.00 0.00 82 1015.9
20260906061505 77 349 0.0 0.0 0.00 0.00 0.00 83 1016.1
20260906060959 77 349 0.0 0.0 0.00 0.00 0.00 81 1015.9
20260906060456 78 349 0.0 0.0 0.00 0.00 0.00 82 1016.1
20260906055952 77 349 0.0 0.0 0.00 0.00 0.00 82 1016.1
20260906055448 77 349 0.0 0.0 0.00 0.00 0.00 81 1016.0
20260906054943 77 349 0.0 0.0 0.00 0.00 0.00 82 1016.2
20260906054443 78 349 0.0 0.0 0.00 0.00 0.00 82 1016.1
20260906053939 78 349 0.0 0.0 0.00 0.00 0.00 82 1016.3
20260906053435 78 349 0.0 0.0 0.00 0.00 0.00 82 1016.2
20260906052930 78 349 0.0 0.0 0.00 0.00 0.00 82 1016.2
20260906052426 78 349 0.0 0.0 0.00 0.00 0.00 82 1016.4
20260906051923 78 350 0.0 0.0 0.00 0.00 0.00 82 1016.2
20260906051424 78 350 0.0 0.0 0.00 0.00 0.00 82 1016.2
20260906050919 78 350 0.0 0.0 0.00 0.00 0.00 82 1016.3
20260906050419 78 350 0.0 0.0 0.00 0.00 0.00 82 1016.1
20260906045918 78 350 0.0 0.0 0.00 0.00 0.00 81 1016.2
20260906045417 78 350 0.0 0.0 0.00 0.00 0.00 82 1016.1
20260906044914 78 350 0.0 0.0 0.00 0.00 0.00 82 1016.3
20260906044413 78 350 0.0 0.0 0.00 0.00 0.00 82 1016.2
20260906043909 78 350 0.0 0.0 0.00 0.00 0.00 82 1016.4
20260906043405 79 350 0.0 0.0 0.00 0.00 0.00 82 1016.2
20260906042900 79 350 0.0 0.0 0.00 0.00 0.00 82 1016.2
20260906042359 79 350 0.0 0.0 0.00 0.00 0.00 81 1016.3
20260906041855 79 350 0.0 0.0 0.00 0.00 0.00 81 1016.2
20260906041350 79 350 0.0 0.0 0.00 0.00 0.00 80 1016.1
20260906040845 79 350 0.0 0.0 0.00 0.00 0.00 80 1016.2
20260906040341 80 350 0.0 0.0 0.00 0.00 0.00 80 1016.2
20260906035836 80 349 0.0 0.0 0.00 0.00 0.00 79 1016.1
20260906035331 80 348 0.0 0.0 0.00 0.00 0.00 79 1016.0
20260906034827 80 348 0.0 0.0 0.00 0.00 0.00 78 1016.1
20260906034327 81 347 0.0 0.0 0.00 0.00 0.00 78 1016.0
20260906033823 81 347 0.0 0.0 0.00 0.00 0.00 78 1015.9
20260906033321 81 350 0.0 0.0 0.00 0.00 0.00 77 1015.9
20260906032818 81 350 0.0 0.0 0.00 0.00 0.00 76 1015.8
20260906032314 81 350 0.0 0.0 0.00 0.00 0.00 76 1015.9
20260906031809 82 350 0.0 0.0 0.00 0.00 0.00 76 1015.9
20260906031304 82 350 0.0 0.0 0.00 0.00 0.00 75 1015.8
20260906030804 82 350 0.0 0.0 0.00 0.00 0.00 74 1015.8
20260906030259 82 350 0.0 0.0 0.00 0.00 0.00 74 1015.7
20260906025759 82 351 0.0 0.0 0.00 0.00 0.00 74 1015.7
20260906025253 83 351 0.0 0.0 0.00 0.00 0.00 73 1015.5
20260906024752 83 351 0.0 0.0 0.00 0.00 0.00 72 1015.4
20260906024251 83 351 0.0 0.0 0.00 0.00 0.00 72 1015.4
20260906023747 84 351 0.0 0.0 0.00 0.00 0.00 72 1015.3
20260906023242 84 351 0.0 0.0 0.00 0.00 0.00 71 1015.2
20260906022738 84 355 0.0 0.0 0.00 0.00 0.00 70 1015.1
20260906022233 85 356 0.0 0.0 0.00 0.00 0.00 69 1015.2
20260906021729 85 357 0.0 0.0 0.00 0.00 0.00 69 1015.1
20260906021227 85 354 0.0 0.0 0.00 0.00 0.00 68 1015.1
20260906020722 85 353 0.0 0.0 0.00 0.00 0.00 69 1015.0
20260906020217 86 350 0.0 0.0 0.00 0.00 0.00 68 1015.0
20260906015712 86 3 0.0 0.0 0.00 0.00 0.00 67 1014.9
20260906015210 86 354 0.0 0.0 0.00 0.00 0.00 67 1014.9
20260906014704 86 354 0.0 0.0 0.00 0.00 0.00 66 1014.8
20260906014200 87 352 0.0 0.0 0.00 0.00 0.00 66 1014.8
20260906013656 87 353 0.0 0.0 0.00 0.00 0.00 65 1014.8
20260906013151 87 346 0.0 0.0 0.00 0.00 0.00 65 1014.5
20260906012651 87 350 0.0 0.0 0.00 0.00 0.00 65 1014.4
20260906012151 87 349 0.0 0.0 0.00 0.00 0.00 65 1014.5
20260906011647 87 350 0.0 0.0 0.00 0.00 0.00 65 1014.4
20260906011142 87 351 0.0 0.0 0.00 0.00 0.00 65 1014.4
20260906010637 86 344 0.0 0.0 0.00 0.00 0.00 65 1014.4
20260906010134 87 350 0.0 0.0 0.00 0.00 0.00 64 1014.3
20260906005633 87 350 0.0 0.0 0.00 0.00 0.00 62 1014.3
20260906005132 87 351 0.0 0.0 0.00 0.00 0.00 62 1014.3
20260906004626 87 349 0.0 0.0 0.00 0.00 0.00 63 1014.2
20260906004121 88 349 0.0 0.0 0.00 0.00 0.00 60 1014.3
20260906003617 89 352 0.0 0.0 0.00 0.00 0.00 59 1014.1
20260906003112 89 352 0.0 0.0 0.00 0.00 0.00 58 1014.2
20260906002607 90 352 0.0 0.0 0.00 0.00 0.00 58 1014.0
20260906002101 90 352 0.0 0.0 0.00 0.00 0.00 56 1014.3
20260906001557 91 352 0.0 0.0 0.00 0.00 0.00 54 1014.2
20260906001056 92 352 0.0 0.0 0.00 0.00 0.00 53 1014.2
20260906000553 92 352 0.0 0.0 0.00 0.00 0.00 51 1014.3
20260906000048 93 352 0.0 0.0 0.00 0.00 0.00 51 1014.1
20260905235547 94 352 0.0 0.0 0.00 0.00 0.00 50 1014.1
20260905235042 94 352 0.0 0.0 0.00 0.00 0.00 50 1014.2
20260905234538 95 354 0.0 0.0 0.00 0.00 0.00 47 1014.2
20260905234032 95 352 0.0 0.0 0.00 0.00 0.00 47 1014.2
20260905233527 96 350 0.0 0.0 0.00 0.00 0.00 47 1014.1
20260905233026 96 346 0.0 0.0 0.00 0.00 0.00 45 1014.1
20260905232522 96 346 0.0 0.9 0.00 0.00 0.00 45 1014.1
20260905232018 96 348 0.0 0.0 0.00 0.00 0.00 46 1014.2
20260905231513 97 350 0.0 0.0 0.00 0.00 0.00 44 1014.0
20260905231009 97 346 0.0 0.9 0.00 0.00 0.00 43 1014.1
20260905230508 97 349 0.0 0.9 0.00 0.00 0.00 42 1013.8
20260905230007 97 342 0.0 0.0 0.00 0.00 0.00 43 1014.2
20260905225502 98 350 0.0 0.0 0.00 0.00 0.00 42 1014.1
20260905224957 98 350 0.0 0.0 0.00 0.00 0.00 42 1014.1
20260905224452 98 328 0.0 0.9 0.00 0.00 0.00 44 1014.1
20260905223951 98 352 0.0 0.0 0.00 0.00 0.00 43 1014.0
20260905223449 98 303 1.7 1.7 0.00 0.00 0.00 42 1014.2
20260905222944 97 348 0.0 0.0 0.00 0.00 0.00 42 1014.1
20260905222443 97 357 0.0 0.9 0.00 0.00 0.00 43 1014.1
20260905221939 98 350 0.0 0.9 0.00 0.00 0.00 43 1014.2
20260905221436 99 332 1.7 1.7 0.00 0.00 0.00 41 1014.3
20260905220931 100 24 0.9 1.7 0.00 0.00 0.00 42 1014.5
20260905220428 100 287 0.9 1.7 0.00 0.00 0.00 40 1014.3
20260905215927 101 350 0.9 0.9 0.00 0.00 0.00 41 1014.4
20260905215422 101 338 0.9 0.9 0.00 0.00 0.00 41 1014.4
20260905214918 101 348 0.0 0.9 0.00 0.00 0.00 41 1014.4
20260905214414 102 267 1.7 1.7 0.00 0.00 0.00 40 1014.5
20260905213913 103 339 1.7 2.6 0.00 0.00 0.00 38 1014.6
20260905213410 102 269 0.9 2.6 0.00 0.00 0.00 39 1014.9
20260905212905 102 336 0.9 2.6 0.00 0.00 0.00 39 1014.8
20260905212400 102 347 0.0 0.9 0.00 0.00 0.00 41 1014.6
20260905211859 102 338 2.6 2.6 0.00 0.00 0.00 39 1014.8
20260905211355 102 11 0.9 0.9 0.00 0.00 0.00 38 1014.9
20260905210851 104 287 1.7 2.6 0.00 0.00 0.00 38 1014.9
20260905210351 104 351 0.0 0.9 0.00 0.00 0.00 40 1014.8
20260905205849 104 336 0.9 1.7 0.00 0.00 0.00 39 1015.1
20260905205344 102 321 0.9 1.7 0.00 0.00 0.00 39 1015.1
20260905204844 101 354 0.9 1.7 0.00 0.00 0.00 40 1015.1
20260905204340 101 347 1.7 5.2 0.00 0.00 0.00 40 1015.2
20260905203838 102 330 0.9 0.9 0.00 0.00 0.00 40 1015.3
20260905203335 102 351 0.9 1.7 0.00 0.00 0.00 40 1015.4
20260905202830 103 325 1.7 2.6 0.00 0.00 0.00 38 1015.4
20260905202325 103 287 0.9 1.7 0.00 0.00 0.00 40 1015.5
20260905201821 103 359 0.0 3.5 0.00 0.00 0.00 38 1015.7
20260905201311 103 1 0.9 1.7 0.00 0.00 0.00 38 1015.7
20260905200810 104 328 0.0 1.7 0.00 0.00 0.00 41 1015.7
20260905200306 103 325 0.9 0.9 0.00 0.00 0.00 39 1015.8
20260905195804 102 347 0.9 1.7 0.00 0.00 0.00 39 1015.9
20260905195259 101 350 0.0 2.6 0.00 0.00 0.00 41 1015.9
20260905194755 102 38 0.9 0.9 0.00 0.00 0.00 40 1016.0
20260905194254 101 338 1.7 1.7 0.00 0.00 0.00 40 1016.0
20260905193748 102 350 2.6 2.6 0.00 0.00 0.00 39 1015.9
20260905193243 102 309 0.0 0.9 0.00 0.00 0.00 40 1015.9
20260905192738 102 346 0.9 1.7 0.00 0.00 0.00 40 1016.1
20260905192235 101 350 0.9 1.7 0.00 0.00 0.00 41 1016.0
20260905191734 100 341 0.0 0.9 0.00 0.00 0.00 44 1016.2
20260905191232 101 353 0.9 1.7 0.00 0.00 0.00 43 1016.2
20260905190731 102 13 0.0 1.7 0.00 0.00 0.00 44 1016.0
20260905190230 100 241 0.0 1.7 0.00 0.00 0.00 45 1016.2
20260905185729 100 3 0.9 3.5 0.00 0.00 0.00 44 1016.3
20260905185224 100 37 0.9 1.7 0.00 0.00 0.00 43 1016.4
20260905184719 99 349 0.0 0.0 0.00 0.00 0.00 44 1016.3
20260905184218 100 17 1.7 2.6 0.00 0.00 0.00 43 1016.4
20260905183717 101 290 2.6 5.2 0.00 0.00 0.00 43 1016.5
20260905183213 101 340 0.0 1.7 0.00 0.00 0.00 42 1016.6
20260905182707 100 298 1.7 1.7 0.00 0.00 0.00 43 1016.6
20260905182206 101 308 0.9 3.5 0.00 0.00 0.00 46 1016.7
20260905181701 101 343 0.9 2.6 0.00 0.00 0.00 47 1016.8